www.pogodaiklimat.ru

Погода и климат >> Архив погоды >> Кот-д'Ивуар >> Sassandra


ПОГОДА в Sassandra

  • Прогноз погоды в Sassandra
  • Монитор погоды в Sassandra
  • Климат города

АРХИВ ПОГОДЫ в Sassandra

Время (UTC), дата Ветер
(напр.,м/с)
 
Видим.   Явления Облачность Т
(С)
Тd
(С)
f
(%)
Тe
(С)
Тes
(С)
Комфортность P
(гПа)
Po
(гПа)
Тmin
(С)
Tmax
(С)
R
(мм)
R24
(мм)
S
(см)
03 9.07 СЗ 2 10 км 4/4 400 м
[Sc]
+23.6 +22.7 95 +31 +31 очень
душно
1013.8 1006.3
06 9.07 З 2 10 км 9/4 400 м
[Sc Ac und]
+24.0 +23.1 95 +32 +32 очень
душно
1013.7 1006.2 +23.2 0.4
12 9.07 ЮВ 2 10 км 9/5 450 м
[Cu med, cong Ac As]
+26.9 +24.0 84 +37 +42 очень
душно
1015.1 1007.7
15 9.07 В 3 10 км 9/4 450 м
[Cu med, cong Ac As]
+27.0 +24.1 84 +37 +40 очень
душно
1013.4 1006.0
18 9.07 СВ 1 10 км 9/5 400 м
[Cu med, cong Ac As]
+25.5 +23.8 90 +35 +35 очень
душно
1013.6 1006.2 +29.0
21 9.07 ЮВ 3 10 км 8/3 400 м
[Cu med, cong Ac trans]
+24.5 +22.3 88 +32 +32 очень
душно
1015.0 1007.5
00 10.07 Ю 3 10 км 8/3 400 м
[St Ac As]
+25.0 +23.5 91 +34 +34 очень
душно
1015.9 1008.4
06 10.07 СЗ 1 10 км 8/1 400 м
[Sc Ac und]
+24.0 +23.3 96 +32 +32 очень
душно
1015.3 1007.0 +23.7
09 10.07 В 2 10 км 4/4 450 м
[Cu med, cong]
+27.5 +24.5 84 +39 +44 очень
душно
1016.7 1008.3
12 10.07 СВ 1 10 км 8/4 450 м
[Cu med, cong Ac und]
+28.5 +24.2 78 +40 +47 очень
душно
1016.6 1009.2
15 10.07 СВ 2 10 км 9/3 450 м
[Cu med, cong Ac trans]
+28.0 +24.4 81 +39 +44 очень
душно
1011.6 1007.2
18 10.07 В 2 10 км 4/3 450 м
[Cu med, cong Ac trans]
+26.5 +24.4 88 +37 +37 очень
душно
1014.2 1006.8 +29.7
21 10.07 З 1 10 км 9/3 400 м
[Cu med, cong Ac As]
+25.1 +24.2 95 +35 +35 очень
душно
1016.4 1008.9
09 11.07 С 2 10 км 9/3 400 м
[Cu med, cong Ac trans]
+26.0 +24.6 92 +37 +39 очень
душно
1017.1 1009.7
12 11.07 В 2 10 км 5/5 450 м
[Cu med, cong]
+29.3 +23.9 73 +41 +51 опасность
перегрева
1017.0 1009.2
15 11.07 В 3 10 км 4/4 450 м
[Cb calv Ac cuf]
+28.5 +24.2 78 +40 +46 очень
душно
1014.6 1007.2
18 11.07 В 2 10 км 5/3 450 м
[Cu med, cong Ac und]
+26.6 +23.7 84 +36 +37 очень
душно
1014.5 1007.1 +29.5
21 11.07 Ю 4 10 км 3/3 400 м
[Cu med, cong]
+25.0 +23.5 91 +34 +34 очень
душно
1015.9 1008.4
06 12.07 З 2 10 км 9/1 400 м
[Cu med, cong Ac As]
+24.0 +23.3 96 +32 +32 очень
душно
1016.1 1008.6 +23.4
09 12.07 З 3 10 км 9/1 400 м
[Cu med, cong Ac As]
+25.8 +23.2 86 +35 +37 очень
душно
1017.2 1009.7
12 12.07 В 2 10 км 8/4 450 м
[Cu med, cong Ac As]
+28.5 +23.5 74 +39 +45 очень
душно
1016.6 1009.2
15 12.07 В 3 10 км 5/1 450 м
[Cu med, cong Ac trans]
+28.5 +23.3 73 +38 +45 очень
душно
1014.2 1006.8
18 12.07 Ю 1 10 км 5/1 450 м
[Cu med, cong Ac trans]
+26.0 +23.1 84 +35 +35 очень
душно
1013.4 1006.0 +29.5
21 12.07 ЮВ 3 10 км 1/1 400 м
[Sc]
+24.5 +23.2 92 +33 +33 очень
душно
1014.9 1007.4
00 13.07 Ю 2 10 км 3/3 400 м
[Sc]
+24.4 +22.9 91 +32 +32 очень
душно
1016.4 1008.9
03 13.07 ЮВ 3 10 км 4/4 400 м
[Sc]
+24.5 +23.0 91 +32 +32 очень
душно
1015.0 1007.5
06 13.07 З 2 10 км 9/3 400 м
[Sc Ac As]
+24.0 +22.7 92 +31 +31 очень
душно
1014.9 1007.4 +23.7
09 13.07 В 2 10 км 9/4 400 м
[Sc Ac As]
+25.6 +23.1 86 +34 +36 очень
душно
1016.8 1009.3
12 13.07 СВ 1 10 км 8/4 400 м
[Cu med, cong Ac As]
+29.0 +24.0 74 +40 +48 очень
душно
1016.4 1009.0
15 13.07 В 2 10 км 5/4 450 м
[Cu med, cong Ci sp]
+28.0 +22.9 74 +37 +45 очень
душно
1014.2 1006.8
18 13.07 ЮВ 1 10 км 6/6 450 м
[Cu med, cong]
+25.4 +22.8 86 +34 +34 очень
душно
1013.4 1006.0 +30.1
21 13.07 ЮВ 3 10 км 1/1 400 м
[Sc Ac trans]
+24.6 +23.0 91 +33 +33 очень
душно
1015.4 1007.9
00 14.07 Ю 2 10 км 3/3 400 м
[Sc]
+24.6 +22.4 88 +32 +32 очень
душно
1015.8 1008.3
03 14.07 Ю 2 10 км 3/3 400 м
[Sc]
+24.6 +22.4 88 +32 +32 очень
душно
1015.3 1007.8
06 14.07 ЮВ 1 10 км 9/0 300 м
[Ac As]
+24.0 +22.5 91 +31 +31 очень
душно
1014.9 1007.4 +23.5
09 14.07 ЮВ 2 10 км 9/0
[Ac As]
+25.0 +23.4 91 +34 +37 очень
душно
1016.8 1009.3
12 14.07 СВ 1 10 км 8/8 450 м
[Cu med, cong]
+28.0 +23.8 78 +39 +43 очень
душно
1015.6 1008.2
15 14.07 СВ 2 10 км 9/4 450 м
[Cu med, cong Ac trans]
+27.0 +23.4 81 +37 +40 очень
душно
1013.5 1006.1
18 14.07 Ю 3 10 км 10/10 400 м
[Cu med, cong]
+25.5 +23.3 88 +34 +34 очень
душно
1013.3 1005.9 +29.6
21 14.07 СЗ 1 10 км 10/10 400 м
[Cu med, cong]
+24.0 +23.0 94 +32 +32 очень
душно
1014.6 1007.1
00 15.07 СЗ 1 10 км 9/9 400 м
[Cu med, cong]
+24.1 +23.7 98 +33 +33 очень
душно
1015.5 1008.0
03 15.07 СВ 2 8000 м морось {дождь} 10/10 180 м
[Cu med, cong]
+24.1 +22.2 89 +31 +31 очень
душно
1013.9 1006.4
06 15.07 В 1 8000 м слабая морось {дождь} 9/9 180 м
[Cu med, cong]
+23.0 +22.4 96 +31 +31 очень
душно
1014.3 1006.8 +22.6 7
09 15.07 СВ 2 6000 м дождь {морось} 9/5 180 м
[Cu med, cong]
+22.8 +22.4 98 +31 +34 очень
душно
1015.6 1008.1
12 15.07 ЮЗ 1 6000 м дождь {морось} 10/5 180 м
[Cu med, cong]
+24.0 +23.3 96 +32 +39 очень
душно
1016.0 1008.5 26
15 15.07 СВ 1 10 км {дождь} 9/5 400 м
[Cu med, cong Ac und]
+25.5 +23.5 89 +35 +38 очень
душно
1014.2 1006.4
18 15.07 В 2 10 км {дождь} 10/8 400 м
[Cu med, cong Ac As]
+24.2 +22.6 91 +32 +32 очень
душно
1014.0 1006.5 +26.5 26
21 15.07 СЗ 2 10 км 9/9 400 м
[Cu med, cong]
+23.5 +22.0 91 +30 +30 очень
душно
1015.4 1007.9
00 16.07 ЮЗ 2 10 км 9/8 400 м
[Cu med, cong]
+23.7 +22.7 94 +31 +31 очень
душно
1015.8 1008.3

 

Местоположение метеостанции Sassandra (Кот-д'Ивуар): широта 4.95 долгота -6.08 высота над уровнем моря 66 м.

В архиве по умолчанию представлена погода в Sassandra за последнюю неделю. Архивные данные за месяц целиком и за предыдущие месяцы, начиная с января 2011 года, Вы можете получить, выбрав интересующий диапазон дат из раскрывающегося списка и нажав кнопку "Ввод!".


*Определитесь, кто Вы:
робот инопланетянин человек

Внимание! Время в таблицах - всемирное. Для получения местного времени необходимо прибавить поправку, которая в Sassandra равна 0 ч.

Смотрите также архив погоды в соседних городах и на ближайших метеорологических станциях:

Погода в San Pedro (Кот-д'Ивуар) (67 км)
Погода в Gagnoa (Кот-д'Ивуар) (132 км)
Погода в Tabou (Кот-д'Ивуар) (155 км)
Погода в Daloa (Кот-д'Ивуар) (218 км)
Погода в Yamoussoukro (Кот-д'Ивуар) (231 км)
Погода в Abidjan (Кот-д'Ивуар) (241 км)
Погода в Dimbokro (Кот-д'Ивуар) (243 км)
Погода в Adiake (Кот-д'Ивуар) (310 км)
Погода в Man (Кот-д'Ивуар) (314 км)
Погода в Bouake (Кот-д'Ивуар) (329 км)

Пояснения к столбцам:

Ветер - указаны скорость ветра в м/с - средняя за 10 мин, порывы в срок и между сроками (в фигурных скобках) и направление, откуда дует ветер: С - северный, СВ - северо-восточный, В - восточный, ЮВ - юго-восточный, Ю - южный, ЮЗ - юго-западный, З - западный, СЗ - северо-западный.
Видимость - горизонтальная дальность видимости в метрах или километрах. При видимости от 1 до 10 км при отсутствии осадков обычно наблюдается дымка, при ухудшении видимости до 1 км и менее - туман. В сухую погоду видимость может ухудшаться дымом, пылью или мглою.
Явления - указаны атмосферные явления, наблюдавшиеся в срок или в последний час перед сроком; фигурными скобками обозначены явления, наблюдавшиеся между сроками (за 1-3 часа до срока); квадратными скобками обозначены град или гололедные отложения с указанием их диаметра в мм.
Облачность - указаны через наклонную черту общая и нижняя облачность в баллах и высота нижней границы облаков в метрах; квадратными скобками обозначены формы облаков: Ci - перистые, Cs - перисто-слоистые, Cc - перисто-кучевые, Ac - высококучевые, As - высокослоистые, Sc - слоисто-кучевые, Ns - слоисто-дождевые, Cu - кучевые, Cb - кучево-дождевые. Подробнее классификацию облаков см. в Атласе облаков (PDF).
T - Температура воздуха - температура, измеренная на высоте 2 м над землей.
Td - Температура точки росы - температура, при понижении до которой содержащийся в воздухе водяной пар достигнет насыщения.
f - Относительная влажность воздуха - влажноcть воздуха, измеренная на высоте 2 м над землей.
Te - Эффективная температура - температура, которую ощущает одетый по сезону человек в тени. Характеристика душности погоды. При расчете учитывается влияние влажности воздуха и скорости ветра на теплоощущения человека.
Tes - Эффективная температура на солнце - температура, которую ощущает человек, с поправкой на солнечный нагрев. Характеристика знойности погоды. Зависит от высоты солнца над горизонтом, облачности и скорости ветра. Ночью, в пасмурную погоду, а также при ветре 12 м/с и более поправка равна нулю.
P - Атмосферное давление - приведенное к уровню моря атмосферное давление.
Po - Атмосферное давление - измеренное на уровне метеостанции атмосферное давление.
Tmin - Минимальная температура - минимум температуры воздуха на высоте 2 м над землей.
Tmax - Максимальная температура - максимум температуры воздуха на высоте 2 м над землей.
R - Количество осадков - Количество выпавших осадков за период времени, мм. При наведении курсора мыши на число - период времени, за который выпало указанное количество осадков.
R24 - Количество осадков - Количество выпавших осадков за 24 часа, мм.
S - Снежный покров - Высота снежного покрова, см. При наведении курсора мыши на число - состояние снежного покрова и степень покрытия местности в баллах.